FREGAT DEB, 45638

Orbit data source: Space-Track

FREGAT DEB, 45638 is space debris in LEO originally from a launch on Mon, 18 Jul 2011 UTC launched from the Tyuratam Missile And Space Complex (TTMTR). Debris objects in space refer to the collection of defunct objects orbiting the Earth. Examples of debris include non-operational satellites, rocket bodies, and fragments generated from explosions, collisions, or faulty payload assembly.

Loading next visibility...
FREGAT DEB details
Identifier
45638, 2011-037AE
Orbit
LEO
Last TLE update21 hours ago
Origin
Flag of CISVVKO VKS (CIS)
ManufacturerLavochkin
MissionSpacecraft
Bus & MotorUnknown
MassUnknown
Launch date (UTC)
2011-07-18 (14 years ago)
Launch vehicleUnknown
Launch site
Tyuratam Missile And Space Complex (TTMTR)
Object type
Payload
Rocket body
Debris
Shape & HBRUnknown
Radar Cross SectionSmall (<0.1 m²)

Expand to show TLE details & history

TLE from 21 hours ago
0 FREGAT DEB
1 45638U 11037AE  25024.99395537  .00135141  00000-0  10652-1 0  9991
2 45638  51.4120  29.2398 1413436 339.6019  15.3395 12.48691999199606
Epoch: 2025-01-24T23:51Z
Definitive object data (Epoch: 2025-01-24T23:51:17.743Z)
Latitude-0.0001°
Longitude-93.13336°
Altitude414.613 km
Speed8.162 km/s
True Right ascension01h 56m 57s
True Declination0° 00' 00"
Sunlit
Object was in daylight at TLE epoch
Visualization TLE readout
Latitude-47.78455°
Longitude-156.86695°
Altitude720.628 km
Speed7.853 km/s
Apparent Right ascension14h 51m 17s
Apparent Declination-87° 10' 55"
Sunlit
Object is in daylight
Visualization observer readout
Local Sidereal Time22:02:57
Azimuth183.539° SSW
Elevation-40.73°
Doppler factor1
Orbital elements
Apogee altitude2,579.807 km
Perigee altitude361.11 km
Semi-major axis7,848.596 km
Eccentricity0.1413436
Inclination51.412°
RAAN29.2398°
Arg. of periapsis339.6019°
True anomaly20.48813°
Mean anomaly15.3395°
Eccentric anomaly17.81749°
Mean motion3.12144 °/min
BSTAR0.010652
Orbital period115.33 mins
Loading maneuver chart data...
Loading historical data...
Loading historical data...
Loading historical data...
Loading historical data...
Loading historical data...
Loading historical data...
Loading historical data...

FREGAT DEB Visibility forecast

Observer location: undefined°, undefined

Span
Click to sort rows by Start time (UTC) header in descending order
Start Az.
Max El. time (UTC)
Max El. Az.
Max El.
End time (UTC)
End Az.
11 mins2025-01-26 02:55:48.736Z225.097° WSW2025-01-26 02:58:48.736Z144.989° SSE44.753°2025-01-26 03:06:48.736Z54.395° ENE
15 mins2025-01-26 04:55:48.736Z286.226° WNW2025-01-26 05:00:48.736Z352.882° N35.021°2025-01-26 05:10:48.736Z59.027° ENE
20 mins2025-01-26 06:56:48.736Z306.95° NW2025-01-26 07:03:48.736Z11.806° NNE36.395°2025-01-26 07:16:48.736Z85.68° E
24 mins2025-01-26 08:57:48.736Z307.883° NW2025-01-26 09:06:48.736Z12.171° NNE44.574°2025-01-26 09:21:48.736Z123.24° SE
24 mins2025-01-26 10:58:48.736Z296.147° NW2025-01-26 11:09:48.736Z227.142° WSW36.306°2025-01-26 11:22:48.736Z166.557° S
9 mins2025-01-26 13:05:48.736Z263.195° W2025-01-26 13:09:48.736Z246.803° WSW12.427°2025-01-26 13:14:48.736Z227.254° WSW
|